PRIVATE WETTERSTATION BILLIGHEIM-ALLFELD                       ZURCK
Wetterdaten: Sonntag, 16.03.2014
Datum Zeit Temp. A. Temp. A. min Temp. A. max Feuchte A. Luftdruck Regen Wind Richtung Richtung Sonnenschein ET Solar Taupunkt Windchill Windben Empfang
16.03.2014 00:00 6,6 C 6,6 C 6,7 C 85 % 1021,7 hPa 0,0 l/m 11,3 km/h (2 Bft) W-SW 247 0 min 0,025 mm 0 W/m 4,3 C 3,0 C 27,4 km/h (4 Bft) 98 %
16.03.2014 00:10 6,5 C 6,5 C 6,6 C 86 % 1021,7 hPa 0,2 l/m 8,0 km/h (2 Bft) W 270 0 min 0,000 mm 0 W/m 4,3 C 5,2 C 17,7 km/h (3 Bft) 98 %
16.03.2014 00:20 6,3 C 6,3 C 6,5 C 86 % 1021,6 hPa 0,0 l/m 11,3 km/h (2 Bft) W-SW 247 0 min 0,000 mm 0 W/m 4,1 C 2,7 C 22,5 km/h (4 Bft) 97 %
16.03.2014 00:30 6,3 C 6,2 C 6,3 C 87 % 1021,5 hPa 0,0 l/m 9,7 km/h (2 Bft) W 270 0 min 0,000 mm 0 W/m 4,3 C 3,7 C 22,5 km/h (4 Bft) 97 %
16.03.2014 00:40 6,2 C 6,2 C 6,3 C 87 % 1021,4 hPa 0,2 l/m 9,7 km/h (2 Bft) W 270 0 min 0,000 mm 0 W/m 4,2 C 3,6 C 24,1 km/h (4 Bft) 98 %
16.03.2014 00:50 6,1 C 6,1 C 6,2 C 87 % 1021,4 hPa 0,0 l/m 9,7 km/h (2 Bft) W-SW 247 0 min 0,000 mm 0 W/m 4,1 C 3,5 C 20,9 km/h (4 Bft) 98 %
16.03.2014 01:00 6,1 C 6,1 C 6,1 C 87 % 1021,4 hPa 0,0 l/m 12,9 km/h (3 Bft) W-SW 247 0 min 0,025 mm 0 W/m 4,1 C 1,5 C 27,4 km/h (4 Bft) 98 %
16.03.2014 01:10 6,1 C 6,1 C 6,1 C 87 % 1021,2 hPa 0,0 l/m 11,3 km/h (2 Bft) SW 225 0 min 0,000 mm 0 W/m 4,1 C 2,4 C 24,1 km/h (4 Bft) 97 %
16.03.2014 01:20 6,1 C 6,1 C 6,1 C 87 % 1021,2 hPa 0,0 l/m 9,7 km/h (2 Bft) W-SW 247 0 min 0,000 mm 0 W/m 4,1 C 3,5 C 25,7 km/h (4 Bft) 97 %
16.03.2014 01:30 6,1 C 6,1 C 6,1 C 87 % 1021,2 hPa 0,0 l/m 9,7 km/h (2 Bft) W-SW 247 0 min 0,000 mm 0 W/m 4,1 C 3,5 C 22,5 km/h (4 Bft) 98 %
16.03.2014 01:40 6,1 C 6,1 C 6,1 C 87 % 1021,1 hPa 0,0 l/m 9,7 km/h (2 Bft) SW 225 0 min 0,000 mm 0 W/m 4,1 C 3,5 C 22,5 km/h (4 Bft) 98 %
16.03.2014 01:50 6,1 C 6,1 C 6,1 C 87 % 1020,9 hPa 0,0 l/m 9,7 km/h (2 Bft) SW 225 0 min 0,000 mm 0 W/m 4,1 C 3,5 C 27,4 km/h (4 Bft) 98 %
16.03.2014 02:00 6,1 C 6,1 C 6,1 C 87 % 1021,0 hPa 0,0 l/m 12,9 km/h (3 Bft) W-SW 247 0 min 0,025 mm 0 W/m 4,1 C 1,5 C 27,4 km/h (4 Bft) 97 %
16.03.2014 02:10 6,2 C 6,1 C 6,2 C 87 % 1020,8 hPa 0,0 l/m 16,1 km/h (3 Bft) W-SW 247 0 min 0,000 mm 0 W/m 4,2 C 0,0 C 30,6 km/h (5 Bft) 87 %
16.03.2014 02:20 6,2 C 6,2 C 6,2 C 87 % 1020,4 hPa 0,2 l/m 19,3 km/h (3 Bft) W-SW 247 0 min 0,000 mm 0 W/m 4,2 C -1,4 C 38,6 km/h (5 Bft) 98 %
16.03.2014 02:30 6,3 C 6,2 C 6,3 C 87 % 1020,5 hPa 0,0 l/m 14,5 km/h (3 Bft) W 270 0 min 0,000 mm 0 W/m 4,3 C 0,9 C 37,0 km/h (5 Bft) 98 %
16.03.2014 02:40 6,3 C 6,3 C 6,3 C 87 % 1020,0 hPa 0,0 l/m 12,9 km/h (3 Bft) W-SW 247 0 min 0,000 mm 0 W/m 4,3 C 1,7 C 25,7 km/h (4 Bft) 97 %
16.03.2014 02:50 6,3 C 6,3 C 6,3 C 87 % 1020,1 hPa 0,0 l/m 12,9 km/h (3 Bft) W-SW 247 0 min 0,000 mm 0 W/m 4,3 C 1,7 C 29,0 km/h (5 Bft) 98 %
16.03.2014 03:00 6,4 C 6,3 C 6,4 C 87 % 1020,0 hPa 0,0 l/m 12,9 km/h (3 Bft) W-SW 247 0 min 0,025 mm 0 W/m 4,4 C 1,9 C 29,0 km/h (5 Bft) 97 %
16.03.2014 03:10 6,5 C 6,4 C 6,5 C 87 % 1019,8 hPa 0,0 l/m 12,9 km/h (3 Bft) W-SW 247 0 min 0,000 mm 0 W/m 4,5 C 2,0 C 29,0 km/h (5 Bft) 97 %
16.03.2014 03:20 6,5 C 6,4 C 6,5 C 87 % 1019,4 hPa 0,0 l/m 12,9 km/h (3 Bft) SW 225 0 min 0,000 mm 0 W/m 4,5 C 2,0 C 29,0 km/h (5 Bft) 98 %
16.03.2014 03:30 6,6 C 6,5 C 6,6 C 87 % 1019,6 hPa 0,0 l/m 9,7 km/h (2 Bft) SW 225 0 min 0,000 mm 0 W/m 4,6 C 4,0 C 19,3 km/h (3 Bft) 98 %
16.03.2014 03:40 6,6 C 6,6 C 6,6 C 87 % 1019,6 hPa 0,0 l/m 8,0 km/h (2 Bft) S-SW 202 0 min 0,000 mm 0 W/m 4,6 C 5,3 C 14,5 km/h (3 Bft) 98 %
16.03.2014 03:50 6,7 C 6,6 C 6,7 C 87 % 1019,6 hPa 0,0 l/m 8,0 km/h (2 Bft) SW 225 0 min 0,000 mm 0 W/m 4,7 C 5,4 C 17,7 km/h (3 Bft) 98 %
16.03.2014 04:00 6,7 C 6,7 C 6,7 C 87 % 1019,6 hPa 0,0 l/m 6,4 km/h (2 Bft) W-SW 247 0 min 0,025 mm 0 W/m 4,7 C 6,7 C 17,7 km/h (3 Bft) 98 %
16.03.2014 04:10 6,8 C 6,7 C 6,8 C 87 % 1019,7 hPa 0,0 l/m 9,7 km/h (2 Bft) W-SW 247 0 min 0,000 mm 0 W/m 4,8 C 4,3 C 24,1 km/h (4 Bft) 97 %
16.03.2014 04:20 6,9 C 6,8 C 6,9 C 86 % 1019,6 hPa 0,0 l/m 9,7 km/h (2 Bft) W-SW 247 0 min 0,000 mm 0 W/m 4,7 C 4,4 C 20,9 km/h (4 Bft) 98 %
16.03.2014 04:30 6,9 C 6,9 C 6,9 C 86 % 1019,6 hPa 0,0 l/m 8,0 km/h (2 Bft) W-SW 247 0 min 0,000 mm 0 W/m 4,7 C 5,6 C 24,1 km/h (4 Bft) 87 %
16.03.2014 04:40 7,0 C 6,9 C 7,0 C 86 % 1019,5 hPa 0,0 l/m 9,7 km/h (2 Bft) W-SW 247 0 min 0,000 mm 0 W/m 4,8 C 4,5 C 24,1 km/h (4 Bft) 97 %
16.03.2014 04:50 7,1 C 7,0 C 7,1 C 86 % 1019,5 hPa 0,0 l/m 6,4 km/h (2 Bft) W-SW 247 0 min 0,000 mm 0 W/m 4,9 C 7,1 C 14,5 km/h (3 Bft) 98 %
16.03.2014 05:00 7,1 C 7,1 C 7,1 C 85 % 1019,5 hPa 0,0 l/m 6,4 km/h (2 Bft) SW 225 0 min 0,025 mm 0 W/m 4,8 C 7,1 C 19,3 km/h (3 Bft) 97 %
16.03.2014 05:10 7,1 C 7,1 C 7,1 C 85 % 1019,5 hPa 0,0 l/m 8,0 km/h (2 Bft) W-SW 247 0 min 0,000 mm 0 W/m 4,8 C 5,8 C 19,3 km/h (3 Bft) 98 %
16.03.2014 05:20 7,2 C 7,1 C 7,2 C 85 % 1019,4 hPa 0,0 l/m 8,0 km/h (2 Bft) SW 225 0 min 0,000 mm 0 W/m 4,9 C 5,9 C 22,5 km/h (4 Bft) 98 %
16.03.2014 05:30 7,2 C 7,2 C 7,2 C 85 % 1019,4 hPa 0,0 l/m 8,0 km/h (2 Bft) W-SW 247 0 min 0,000 mm 0 W/m 4,9 C 5,9 C 24,1 km/h (4 Bft) 97 %
16.03.2014 05:40 7,3 C 7,2 C 7,3 C 84 % 1019,4 hPa 0,0 l/m 11,3 km/h (2 Bft) SW 225 0 min 0,000 mm 0 W/m 4,8 C 3,8 C 25,7 km/h (4 Bft) 98 %
16.03.2014 05:50 7,4 C 7,3 C 7,4 C 83 % 1019,3 hPa 0,0 l/m 16,1 km/h (3 Bft) W-SW 247 0 min 0,000 mm 0 W/m 4,7 C 1,5 C 37,0 km/h (5 Bft) 97 %
16.03.2014 06:00 7,5 C 7,4 C 7,5 C 83 % 1019,3 hPa 0,0 l/m 12,9 km/h (3 Bft) W-SW 247 0 min 0,025 mm 0 W/m 4,8 C 3,1 C 35,4 km/h (5 Bft) 98 %
16.03.2014 06:10 7,6 C 7,5 C 7,6 C 83 % 1019,3 hPa 0,0 l/m 16,1 km/h (3 Bft) W-SW 247 0 min 0,000 mm 0 W/m 4,9 C 1,7 C 37,0 km/h (5 Bft) 97 %
16.03.2014 06:20 7,6 C 7,6 C 7,6 C 82 % 1019,3 hPa 0,0 l/m 16,1 km/h (3 Bft) W-SW 247 0 min 0,000 mm 0 W/m 4,7 C 1,7 C 37,0 km/h (5 Bft) 98 %
16.03.2014 06:30 7,6 C 7,6 C 7,6 C 82 % 1019,3 hPa 0,0 l/m 17,7 km/h (3 Bft) W-SW 247 0 min 0,000 mm 0 W/m 4,7 C 1,1 C 40,2 km/h (6 Bft) 97 %
16.03.2014 06:40 7,7 C 7,6 C 7,7 C 82 % 1019,3 hPa 0,0 l/m 16,1 km/h (3 Bft) W-SW 247 0 min 0,000 mm 0 W/m 4,8 C 1,9 C 37,0 km/h (5 Bft) 98 %
16.03.2014 06:50 7,7 C 7,7 C 7,7 C 82 % 1019,6 hPa 0,0 l/m 16,1 km/h (3 Bft) W-SW 247 0 min 0,000 mm 0 W/m 4,8 C 1,9 C 30,6 km/h (5 Bft) 98 %
16.03.2014 07:00 7,7 C 7,7 C 7,7 C 82 % 1019,6 hPa 0,0 l/m 14,5 km/h (3 Bft) W-SW 247 0 min 0,025 mm 5 W/m 4,8 C 2,6 C 30,6 km/h (5 Bft) 98 %
16.03.2014 07:10 7,7 C 7,7 C 7,7 C 81 % 1019,6 hPa 0,0 l/m 17,7 km/h (3 Bft) W-SW 247 0 min 0,000 mm 9 W/m 4,7 C 1,2 C 37,0 km/h (5 Bft) 87 %
16.03.2014 07:20 7,8 C 7,7 C 7,8 C 81 % 1019,6 hPa 0,0 l/m 16,1 km/h (3 Bft) W-SW 247 0 min 0,000 mm 12 W/m 4,7 C 2,0 C 40,2 km/h (6 Bft) 97 %
16.03.2014 07:30 7,8 C 7,7 C 7,8 C 81 % 1019,6 hPa 0,0 l/m 17,7 km/h (3 Bft) W-SW 247 0 min 0,000 mm 19 W/m 4,7 C 1,3 C 33,8 km/h (5 Bft) 98 %
16.03.2014 07:40 7,8 C 7,8 C 7,8 C 82 % 1019,6 hPa 0,0 l/m 16,1 km/h (3 Bft) W-SW 247 0 min 0,000 mm 25 W/m 4,9 C 2,0 C 30,6 km/h (5 Bft) 98 %
16.03.2014 07:50 7,8 C 7,8 C 7,8 C 82 % 1019,7 hPa 0,0 l/m 12,9 km/h (3 Bft) W-SW 247 0 min 0,000 mm 32 W/m 4,9 C 3,5 C 33,8 km/h (5 Bft) 98 %
16.03.2014 08:00 7,8 C 7,8 C 7,8 C 82 % 1019,9 hPa 0,0 l/m 12,9 km/h (3 Bft) W-SW 247 0 min 0,025 mm 21 W/m 4,9 C 3,5 C 29,0 km/h (5 Bft) 97 %
16.03.2014 08:10 7,8 C 7,8 C 7,8 C 82 % 1019,8 hPa 0,0 l/m 11,3 km/h (2 Bft) W-SW 247 0 min 0,000 mm 26 W/m 4,9 C 4,4 C 32,2 km/h (5 Bft) 97 %
16.03.2014 08:20 7,9 C 7,8 C 7,9 C 82 % 1019,9 hPa 0,0 l/m 14,5 km/h (3 Bft) W-SW 247 0 min 0,000 mm 32 W/m 5,0 C 2,8 C 40,2 km/h (6 Bft) 98 %
16.03.2014 08:30 7,9 C 7,9 C 7,9 C 82 % 1020,0 hPa 0,0 l/m 16,1 km/h (3 Bft) W-SW 247 0 min 0,000 mm 46 W/m 5,0 C 2,1 C 33,8 km/h (5 Bft) 97 %
16.03.2014 08:40 8,0 C 7,9 C 8,0 C 82 % 1020,1 hPa 0,0 l/m 14,5 km/h (3 Bft) W-SW 247 0 min 0,000 mm 47 W/m 5,1 C 2,9 C 35,4 km/h (5 Bft) 99 %
16.03.2014 08:50 8,0 C 8,0 C 8,0 C 82 % 1020,1 hPa 0,0 l/m 16,1 km/h (3 Bft) W-SW 247 0 min 0,000 mm 69 W/m 5,1 C 2,2 C 32,2 km/h (5 Bft) 98 %
16.03.2014 09:00 8,1 C 8,0 C 8,1 C 82 % 1020,2 hPa 0,0 l/m 16,1 km/h (3 Bft) W-SW 247 0 min 0,051 mm 91 W/m 5,2 C 2,3 C 32,2 km/h (5 Bft) 98 %
16.03.2014 09:10 8,1 C 8,1 C 8,1 C 82 % 1020,2 hPa 0,0 l/m 16,1 km/h (3 Bft) W-SW 247 0 min 0,000 mm 113 W/m 5,2 C 2,3 C 41,8 km/h (6 Bft) 98 %
16.03.2014 09:20 8,2 C 8,1 C 8,2 C 82 % 1020,4 hPa 0,0 l/m 19,3 km/h (3 Bft) W-SW 247 0 min 0,000 mm 84 W/m 5,3 C 1,2 C 40,2 km/h (6 Bft) 97 %
16.03.2014 09:30 8,1 C 8,1 C 8,2 C 82 % 1020,6 hPa 0,0 l/m 19,3 km/h (3 Bft) W 270 0 min 0,000 mm 74 W/m 5,2 C 1,1 C 37,0 km/h (5 Bft) 97 %
16.03.2014 09:40 8,1 C 8,1 C 8,2 C 82 % 1020,7 hPa 0,0 l/m 19,3 km/h (3 Bft) W-SW 247 0 min 0,000 mm 77 W/m 5,2 C 1,1 C 32,2 km/h (5 Bft) 97 %
16.03.2014 09:50 8,1 C 8,1 C 8,2 C 82 % 1020,8 hPa 0,0 l/m 16,1 km/h (3 Bft) W 270 0 min 0,000 mm 58 W/m 5,2 C 2,3 C 30,6 km/h (5 Bft) 92 %
16.03.2014 10:00 8,1 C 8,1 C 8,1 C 82 % 1020,7 hPa 0,0 l/m 12,9 km/h (3 Bft) W-SW 247 0 min 0,051 mm 67 W/m 5,2 C 3,8 C 25,7 km/h (4 Bft) 95 %
16.03.2014 10:10 8,1 C 8,1 C 8,1 C 82 % 1020,6 hPa 0,0 l/m 14,5 km/h (3 Bft) W 270 0 min 0,000 mm 74 W/m 5,2 C 3,1 C 32,2 km/h (5 Bft) 98 %
16.03.2014 10:20 8,2 C 8,1 C 8,2 C 82 % 1020,8 hPa 0,0 l/m 14,5 km/h (3 Bft) W-SW 247 0 min 0,000 mm 97 W/m 5,3 C 3,2 C 37,0 km/h (5 Bft) 98 %
16.03.2014 10:30 8,2 C 8,2 C 8,2 C 82 % 1020,8 hPa 0,0 l/m 14,5 km/h (3 Bft) W-SW 247 0 min 0,000 mm 111 W/m 5,3 C 3,2 C 33,8 km/h (5 Bft) 97 %
16.03.2014 10:40 8,3 C 8,2 C 8,3 C 82 % 1021,0 hPa 0,0 l/m 12,9 km/h (3 Bft) W-SW 247 0 min 0,000 mm 114 W/m 5,4 C 4,1 C 29,0 km/h (5 Bft) 98 %
16.03.2014 10:50 8,3 C 8,3 C 8,3 C 81 % 1020,9 hPa 0,0 l/m 16,1 km/h (3 Bft) W-SW 247 0 min 0,000 mm 97 W/m 5,2 C 2,6 C 32,2 km/h (5 Bft) 97 %
16.03.2014 11:00 8,3 C 8,3 C 8,3 C 81 % 1020,7 hPa 0,0 l/m 14,5 km/h (3 Bft) W-SW 247 0 min 0,051 mm 93 W/m 5,2 C 3,3 C 35,4 km/h (5 Bft) 98 %
16.03.2014 11:10 8,4 C 8,3 C 8,4 C 82 % 1020,7 hPa 0,0 l/m 14,5 km/h (3 Bft) W-SW 247 0 min 0,000 mm 123 W/m 5,5 C 3,4 C 29,0 km/h (5 Bft) 97 %
16.03.2014 11:20 8,5 C 8,4 C 8,5 C 81 % 1020,9 hPa 0,0 l/m 16,1 km/h (3 Bft) W-SW 247 0 min 0,000 mm 137 W/m 5,4 C 2,8 C 32,2 km/h (5 Bft) 98 %
16.03.2014 11:30 8,6 C 8,5 C 8,6 C 81 % 1020,9 hPa 0,0 l/m 12,9 km/h (3 Bft) W-SW 247 0 min 0,000 mm 149 W/m 5,5 C 4,4 C 25,7 km/h (4 Bft) 99 %
16.03.2014 11:40 8,7 C 8,6 C 8,7 C 81 % 1020,7 hPa 0,0 l/m 11,3 km/h (2 Bft) W 270 10 min 0,000 mm 195 W/m 5,6 C 5,4 C 37,0 km/h (5 Bft) 98 %
16.03.2014 11:50 8,9 C 8,8 C 8,9 C 80 % 1020,7 hPa 0,0 l/m 17,7 km/h (3 Bft) W-SW 247 10 min 0,000 mm 206 W/m 5,6 C 2,7 C 37,0 km/h (5 Bft) 100 %
16.03.2014 12:00 9,0 C 8,9 C 9,0 C 80 % 1020,7 hPa 0,0 l/m 19,3 km/h (3 Bft) W-SW 247 10 min 0,102 mm 209 W/m 5,7 C 2,2 C 38,6 km/h (5 Bft) 99 %
16.03.2014 12:10 9,2 C 9,0 C 9,2 C 80 % 1020,6 hPa 0,0 l/m 17,7 km/h (3 Bft) W-SW 247 10 min 0,000 mm 241 W/m 5,9 C 3,1 C 37,0 km/h (5 Bft) 100 %
16.03.2014 12:20 9,3 C 9,2 C 9,3 C 80 % 1020,7 hPa 0,0 l/m 16,1 km/h (3 Bft) W-SW 247 10 min 0,000 mm 244 W/m 6,0 C 3,8 C 35,4 km/h (5 Bft) 100 %
16.03.2014 12:30 9,5 C 9,2 C 9,5 C 79 % 1020,9 hPa 0,0 l/m 20,3 km/h (4 Bft) W 267 10 min 0,000 mm 171 W/m 6,0 C 2,5 C 37,0 km/h (5 Bft) 97 %
16.03.2014 12:40 9,7 C 9,5 C 9,7 C 79 % 1020,7 hPa 0,0 l/m 14,2 km/h (3 Bft) W 269 10 min 0,000 mm 227 W/m 6,2 C 5,1 C 25,7 km/h (4 Bft) 98 %
16.03.2014 12:50 9,9 C 9,7 C 9,9 C 78 % 1020,7 hPa 0,0 l/m 12,7 km/h (3 Bft) W-SW 252 10 min 0,000 mm 220 W/m 6,2 C 6,1 C 29,0 km/h (5 Bft) 98 %
16.03.2014 13:00 10,2 C 9,9 C 10,2 C 77 % 1020,7 hPa 0,0 l/m 15,0 km/h (3 Bft) W-SW 254 10 min 0,000 mm 202 W/m 6,4 C 5,4 C 37,0 km/h (5 Bft) 98 %
16.03.2014 13:10 10,4 C 10,2 C 10,4 C 76 % 1020,5 hPa 0,0 l/m 10,2 km/h (2 Bft) W 269 10 min 0,104 mm 214 W/m 6,4 C 7,9 C 25,7 km/h (4 Bft) 97 %
16.03.2014 13:20 10,6 C 10,4 C 10,6 C 75 % 1020,4 hPa 0,0 l/m 14,1 km/h (3 Bft) SW 219 10 min 0,000 mm 209 W/m 6,4 C 6,2 C 35,4 km/h (5 Bft) 98 %
16.03.2014 13:30 10,8 C 10,6 C 10,8 C 76 % 1020,6 hPa 0,0 l/m 10,1 km/h (2 Bft) W-SW 240 10 min 0,000 mm 192 W/m 6,7 C 8,4 C 25,7 km/h (4 Bft) 97 %
16.03.2014 13:40 11,0 C 10,8 C 11,0 C 74 % 1020,4 hPa 0,0 l/m 13,7 km/h (3 Bft) W 265 10 min 0,000 mm 244 W/m 6,5 C 6,9 C 27,4 km/h (4 Bft) 98 %
16.03.2014 13:50 11,2 C 10,9 C 11,2 C 74 % 1020,3 hPa 0,0 l/m 16,5 km/h (3 Bft) SW 234 10 min 0,000 mm 244 W/m 6,7 C 6,0 C 33,8 km/h (5 Bft) 97 %
16.03.2014 14:00 11,3 C 11,2 C 11,3 C 73 % 1020,1 hPa 0,0 l/m 22,3 km/h (4 Bft) SW 216 10 min 0,000 mm 199 W/m 6,6 C 4,3 C 38,6 km/h (5 Bft) 97 %
16.03.2014 14:10 11,3 C 11,3 C 11,3 C 73 % 1020,3 hPa 0,0 l/m 19,3 km/h (3 Bft) W 267 10 min 0,152 mm 214 W/m 6,6 C 5,2 C 40,2 km/h (6 Bft) 98 %
16.03.2014 14:20 11,4 C 11,3 C 11,4 C 73 % 1020,1 hPa 0,0 l/m 13,7 km/h (3 Bft) W 259 10 min 0,001 mm 239 W/m 6,7 C 7,4 C 32,2 km/h (5 Bft) 97 %
16.03.2014 14:30 11,5 C 11,4 C 11,5 C 73 % 1020,1 hPa 0,0 l/m 13,1 km/h (3 Bft) W-SW 252 10 min 0,000 mm 211 W/m 6,8 C 7,7 C 29,0 km/h (5 Bft) 98 %
16.03.2014 14:40 11,7 C 11,5 C 11,7 C 72 % 1020,1 hPa 0,0 l/m 17,3 km/h (3 Bft) SW 236 10 min 0,000 mm 302 W/m 6,8 C 6,4 C 38,6 km/h (5 Bft) 97 %
16.03.2014 14:50 12,1 C 11,7 C 12,1 C 71 % 1019,7 hPa 0,0 l/m 19,6 km/h (3 Bft) SW 234 10 min 0,000 mm 288 W/m 7,0 C 6,1 C 41,8 km/h (6 Bft) 98 %
16.03.2014 15:00 12,1 C 12,1 C 12,1 C 71 % 1019,5 hPa 0,0 l/m 17,3 km/h (3 Bft) W-NW 283 10 min 0,000 mm 206 W/m 7,0 C 6,9 C 35,4 km/h (5 Bft) 88 %
16.03.2014 15:10 11,8 C 11,8 C 12,1 C 72 % 1019,4 hPa 0,0 l/m 17,2 km/h (3 Bft) W-SW 252 10 min 0,177 mm 218 W/m 6,9 C 6,5 C 38,6 km/h (5 Bft) 98 %
16.03.2014 15:20 12,1 C 11,8 C 12,1 C 71 % 1019,4 hPa 0,0 l/m 20,8 km/h (4 Bft) W 276 10 min 0,000 mm 469 W/m 7,0 C 5,8 C 40,2 km/h (6 Bft) 97 %
16.03.2014 15:30 12,5 C 12,1 C 12,5 C 69 % 1019,1 hPa 0,0 l/m 19,1 km/h (3 Bft) W-SW 253 10 min 0,000 mm 446 W/m 7,0 C 6,8 C 45,1 km/h (6 Bft) 97 %
16.03.2014 15:40 12,6 C 12,5 C 12,7 C 69 % 1019,2 hPa 0,0 l/m 17,2 km/h (3 Bft) SW 218 10 min 0,000 mm 244 W/m 7,1 C 7,5 C 32,2 km/h (5 Bft) 98 %
16.03.2014 15:50 12,1 C 12,1 C 12,6 C 70 % 1019,1 hPa 0,0 l/m 19,4 km/h (3 Bft) W 278 10 min 0,000 mm 172 W/m 6,8 C 6,2 C 41,8 km/h (6 Bft) 97 %
16.03.2014 16:00 11,8 C 11,8 C 12,1 C 71 % 1019,0 hPa 0,0 l/m 17,8 km/h (3 Bft) W 263 0 min 0,204 mm 105 W/m 6,7 C 6,3 C 38,6 km/h (5 Bft) 98 %
16.03.2014 16:10 11,7 C 11,7 C 11,8 C 72 % 1018,9 hPa 0,0 l/m 18,6 km/h (3 Bft) W 278 0 min 0,000 mm 84 W/m 6,8 C 5,9 C 40,2 km/h (6 Bft) 97 %
16.03.2014 16:20 11,7 C 11,7 C 11,7 C 72 % 1018,9 hPa 0,0 l/m 17,6 km/h (3 Bft) W 271 0 min 0,000 mm 70 W/m 6,8 C 6,2 C 35,4 km/h (5 Bft) 97 %
16.03.2014 16:30 11,8 C 11,7 C 11,8 C 72 % 1018,8 hPa 0,0 l/m 16,4 km/h (3 Bft) SW 232 0 min 0,000 mm 76 W/m 6,9 C 6,8 C 38,6 km/h (5 Bft) 98 %
16.03.2014 16:40 11,9 C 11,8 C 11,9 C 72 % 1018,7 hPa 0,0 l/m 17,2 km/h (3 Bft) SW 223 0 min 0,000 mm 56 W/m 7,0 C 6,6 C 38,6 km/h (5 Bft) 97 %
16.03.2014 16:50 11,9 C 11,9 C 11,9 C 72 % 1018,8 hPa 0,0 l/m 15,2 km/h (3 Bft) W-SW 243 0 min 0,000 mm 39 W/m 7,0 C 7,4 C 32,2 km/h (5 Bft) 98 %
16.03.2014 17:00 11,9 C 11,9 C 11,9 C 71 % 1018,8 hPa 0,0 l/m 14,7 km/h (3 Bft) W-SW 244 0 min 0,076 mm 49 W/m 6,8 C 7,6 C 33,8 km/h (5 Bft) 97 %
16.03.2014 17:10 12,0 C 11,9 C 12,0 C 72 % 1018,9 hPa 0,0 l/m 13,9 km/h (3 Bft) SW 229 0 min 0,000 mm 33 W/m 7,1 C 8,0 C 30,6 km/h (5 Bft) 88 %
16.03.2014 17:20 12,0 C 12,0 C 12,0 C 72 % 1018,9 hPa 0,0 l/m 13,7 km/h (3 Bft) W-SW 238 0 min 0,000 mm 26 W/m 7,1 C 8,1 C 27,4 km/h (4 Bft) 97 %
16.03.2014 17:30 12,0 C 11,9 C 12,0 C 72 % 1019,0 hPa 0,0 l/m 9,9 km/h (2 Bft) SW 219 0 min 0,000 mm 23 W/m 7,1 C 9,9 C 20,9 km/h (4 Bft) 97 %
16.03.2014 17:40 12,1 C 12,0 C 12,1 C 72 % 1018,9 hPa 0,0 l/m 10,5 km/h (2 Bft) SW 232 0 min 0,000 mm 19 W/m 7,2 C 9,7 C 27,4 km/h (4 Bft) 96 %
16.03.2014 17:50 12,1 C 12,1 C 12,1 C 71 % 1018,9 hPa 0,0 l/m 10,3 km/h (2 Bft) W-SW 252 0 min 0,000 mm 16 W/m 7,0 C 9,8 C 20,9 km/h (4 Bft) 97 %
16.03.2014 18:00 12,2 C 12,1 C 12,2 C 72 % 1018,9 hPa 0,0 l/m 12,1 km/h (2 Bft) W-SW 249 0 min 0,051 mm 12 W/m 7,3 C 9,0 C 30,6 km/h (5 Bft) 98 %
16.03.2014 18:10 12,3 C 12,2 C 12,3 C 71 % 1019,1 hPa 0,0 l/m 11,5 km/h (2 Bft) SW 224 0 min 0,000 mm 5 W/m 7,2 C 9,4 C 22,5 km/h (4 Bft) 98 %
16.03.2014 18:20 12,3 C 12,3 C 12,3 C 71 % 1019,1 hPa 0,0 l/m 10,1 km/h (2 Bft) SW 231 0 min 0,000 mm 0 W/m 7,2 C 10,1 C 20,9 km/h (4 Bft) 96 %
16.03.2014 18:30 12,2 C 12,2 C 12,3 C 72 % 1019,3 hPa 0,0 l/m 10,5 km/h (2 Bft) W-SW 244 0 min 0,000 mm 0 W/m 7,3 C 9,8 C 24,1 km/h (4 Bft) 97 %
16.03.2014 18:40 12,2 C 12,1 C 12,2 C 72 % 1019,4 hPa 0,0 l/m 11,2 km/h (2 Bft) SW 230 0 min 0,000 mm 0 W/m 7,3 C 9,4 C 25,7 km/h (4 Bft) 98 %
16.03.2014 18:50 12,1 C 12,1 C 12,2 C 72 % 1019,9 hPa 0,0 l/m 8,8 km/h (2 Bft) W-SW 256 0 min 0,000 mm 0 W/m 7,2 C 10,6 C 22,5 km/h (4 Bft) 98 %
16.03.2014 19:00 12,1 C 12,1 C 12,2 C 72 % 1019,9 hPa 0,0 l/m 8,1 km/h (2 Bft) SW 229 0 min 0,025 mm 0 W/m 7,2 C 11,0 C 27,4 km/h (4 Bft) 98 %
16.03.2014 19:10 12,1 C 12,1 C 12,1 C 72 % 1020,1 hPa 0,0 l/m 8,9 km/h (2 Bft) W-NW 292 0 min 0,000 mm 0 W/m 7,2 C 10,5 C 22,5 km/h (4 Bft) 100 %
16.03.2014 19:20 12,1 C 12,1 C 12,1 C 72 % 1020,2 hPa 0,0 l/m 9,5 km/h (2 Bft) W-SW 247 0 min 0,000 mm 0 W/m 7,2 C 10,2 C 16,1 km/h (3 Bft) 100 %
16.03.2014 19:30 11,9 C 11,9 C 12,1 C 73 % 1020,3 hPa 0,0 l/m 6,2 km/h (2 Bft) NW 304 0 min 0,000 mm 0 W/m 7,2 C 11,9 C 14,5 km/h (3 Bft) 100 %
16.03.2014 19:40 11,8 C 11,8 C 12,0 C 73 % 1020,1 hPa 0,0 l/m 3,8 km/h (1 Bft) W-SW 250 0 min 0,000 mm 0 W/m 7,1 C 11,8 C 14,5 km/h (3 Bft) 100 %
16.03.2014 19:50 11,7 C 11,7 C 11,8 C 73 % 1020,2 hPa 0,0 l/m 1,6 km/h (1 Bft) W-SW 252 0 min 0,000 mm 0 W/m 7,0 C 11,7 C 8,0 km/h (2 Bft) 100 %
16.03.2014 20:00 11,6 C 11,6 C 11,7 C 77 % 1020,4 hPa 0,0 l/m 1,9 km/h (1 Bft) W-SW 238 0 min 0,000 mm 0 W/m 7,7 C 11,6 C 8,0 km/h (2 Bft) 100 %
16.03.2014 20:10 11,3 C 11,3 C 11,6 C 74 % 1020,5 hPa 0,0 l/m 1,9 km/h (1 Bft) W-SW 255 0 min 0,025 mm 0 W/m 6,8 C 11,3 C 9,7 km/h (2 Bft) 100 %
16.03.2014 20:20 11,1 C 11,1 C 11,3 C 75 % 1020,6 hPa 0,0 l/m 1,3 km/h (1 Bft) W 259 0 min 0,000 mm 0 W/m 6,8 C 11,1 C 6,4 km/h (2 Bft) 100 %
16.03.2014 20:30 10,8 C 10,8 C 11,1 C 75 % 1020,6 hPa 0,0 l/m 0,8 km/h (0 Bft) W 259 0 min 0,000 mm 0 W/m 6,5 C 10,8 C 4,8 km/h (1 Bft) 100 %
16.03.2014 20:40 10,5 C 10,5 C 10,8 C 77 % 1020,6 hPa 0,0 l/m 0,3 km/h (0 Bft) S-SW 198 0 min 0,000 mm 0 W/m 6,6 C 10,5 C 8,0 km/h (2 Bft) 99 %
16.03.2014 20:50 10,2 C 10,2 C 10,5 C 78 % 1020,6 hPa 0,0 l/m 2,2 km/h (1 Bft) SW 226 0 min 0,000 mm 0 W/m 6,5 C 10,2 C 8,0 km/h (2 Bft) 99 %
16.03.2014 21:00 10,0 C 10,0 C 10,2 C 78 % 1020,6 hPa 0,0 l/m 0,7 km/h (0 Bft) SW 226 0 min 0,026 mm 0 W/m 6,3 C 10,0 C 6,4 km/h (2 Bft) 100 %
16.03.2014 21:10 9,9 C 9,9 C 10,0 C 79 % 1020,7 hPa 0,0 l/m 0,0 km/h (0 Bft) SW 225 0 min 0,000 mm 0 W/m 6,4 C 9,9 C 1,6 km/h (1 Bft) 100 %
16.03.2014 21:20 9,8 C 9,8 C 9,9 C 79 % 1020,6 hPa 0,0 l/m 0,0 km/h (0 Bft) SW 225 0 min 0,000 mm 0 W/m 6,3 C 9,8 C 1,6 km/h (1 Bft) 100 %
16.03.2014 21:30 9,7 C 9,7 C 9,8 C 79 % 1020,7 hPa 0,0 l/m 0,0 km/h (0 Bft) SW 225 0 min 0,000 mm 0 W/m 6,2 C 9,7 C 3,2 km/h (1 Bft) 100 %
16.03.2014 21:40 9,7 C 9,7 C 9,7 C 79 % 1020,7 hPa 0,0 l/m 0,0 km/h (0 Bft) N 0 0 min 0,000 mm 0 W/m 6,2 C 9,7 C 0,0 km/h (0 Bft) 100 %
16.03.2014 21:50 9,7 C 9,6 C 9,7 C 79 % 1020,7 hPa 0,0 l/m 0,0 km/h (0 Bft) SW 225 0 min 0,000 mm 0 W/m 6,2 C 9,7 C 1,6 km/h (1 Bft) 99 %
16.03.2014 22:00 9,5 C 9,5 C 9,6 C 79 % 1020,7 hPa 0,0 l/m 1,6 km/h (1 Bft) SW 225 0 min 0,025 mm 0 W/m 6,0 C 9,5 C 6,4 km/h (2 Bft) 100 %
16.03.2014 22:10 9,4 C 9,4 C 9,5 C 80 % 1020,7 hPa 0,0 l/m 3,2 km/h (1 Bft) SW 225 0 min 0,000 mm 0 W/m 6,1 C 9,4 C 6,4 km/h (2 Bft) 99 %
16.03.2014 22:20 9,4 C 9,4 C 9,4 C 80 % 1020,7 hPa 0,0 l/m 1,6 km/h (1 Bft) W-SW 247 0 min 0,000 mm 0 W/m 6,1 C 9,4 C 6,4 km/h (2 Bft) 100 %
16.03.2014 22:30 9,2 C 9,2 C 9,4 C 81 % 1020,8 hPa 0,0 l/m 1,6 km/h (1 Bft) SW 225 0 min 0,000 mm 0 W/m 6,1 C 9,2 C 6,4 km/h (2 Bft) 100 %
16.03.2014 22:40 9,2 C 9,2 C 9,2 C 81 % 1020,9 hPa 0,0 l/m 1,6 km/h (1 Bft) SW 225 0 min 0,000 mm 0 W/m 6,1 C 9,2 C 6,4 km/h (2 Bft) 100 %
16.03.2014 22:50 9,3 C 9,2 C 9,3 C 81 % 1021,0 hPa 0,0 l/m 1,6 km/h (1 Bft) SW 225 0 min 0,000 mm 0 W/m 6,2 C 9,3 C 11,3 km/h (2 Bft) 100 %
16.03.2014 23:00 9,4 C 9,3 C 9,4 C 81 % 1021,0 hPa 0,0 l/m 4,8 km/h (1 Bft) SW 225 0 min 0,025 mm 0 W/m 6,3 C 9,4 C 11,3 km/h (2 Bft) 100 %
16.03.2014 23:10 9,5 C 9,4 C 9,5 C 81 % 1020,9 hPa 0,0 l/m 4,8 km/h (1 Bft) SW 225 0 min 0,000 mm 0 W/m 6,4 C 9,5 C 16,1 km/h (3 Bft) 100 %
16.03.2014 23:20 9,6 C 9,5 C 9,6 C 80 % 1021,1 hPa 0,0 l/m 6,4 km/h (2 Bft) SW 225 0 min 0,000 mm 0 W/m 6,3 C 9,6 C 17,7 km/h (3 Bft) 100 %
16.03.2014 23:30 9,6 C 9,6 C 9,6 C 80 % 1021,0 hPa 0,0 l/m 6,4 km/h (2 Bft) SW 225 0 min 0,000 mm 0 W/m 6,3 C 9,6 C 17,7 km/h (3 Bft) 100 %
16.03.2014 23:40 9,6 C 9,6 C 9,6 C 80 % 1021,0 hPa 0,0 l/m 4,8 km/h (1 Bft) SW 225 0 min 0,000 mm 0 W/m 6,3 C 9,6 C 11,3 km/h (2 Bft) 100 %
16.03.2014 23:50 9,4 C 9,4 C 9,6 C 80 % 1020,9 hPa 0,0 l/m 4,8 km/h (1 Bft) SW 225 0 min 0,000 mm 0 W/m 6,1 C 9,4 C 11,3 km/h (2 Bft) 100 %
_ Min-Zeit 00:50 00:50 01:00 15:30 16:40 - 21:10 - - - - - 00:50 02:20 21:40 02:10
Minimum _ 6,1 C 6,1 C 6,1 C 69 % 1018,7 hPa - 0,0 km/h (0 Bft) - - - - - 4,1 C -1,4 C 0,0 km/h (0 Bft) 87 %
_ Max-Zeit 15:40 15:40 15:40 00:30 00:00 00:10 14:00 - - 11:40 16:00 15:20 20:00 19:30 15:30 19:10
Maximum _ 12,7 C 12,5 C 12,7 C 87 % 1021,7 hPa 0,2 l/m 22,3 km/h
SW (4 Bft)
- - 10 min 0,204 mm 469 W/m 7,7 C 11,9 C 45,1 km/h
W (6 Bft)
100 %
Durchschnitt _ 9,1 C 9,1 C 9,2 C 80 % 1020,1 hPa #0,6 l/m 11,6 km/h (2 Bft) W-SW - #4:20 h #1,371 mm 129 W/m 5,7 C 5,7 C 26,2 km/h (4 Bft) 98 %
PRIVATE WETTERSTATION BILLIGHEIM-ALLFELD - www.neckar-odenwald-wetter.de - Holger Sonntag